Home > Weather > Olten > Past weeks

Flag for Switzerland Past Weather in Olten, Solothurn, Switzerland — Yesterday and Last 2 Weeks

Now
62 °F

Cool.


Feels Like: 62 °F
Forecast: 60 / 87 °F
Wind: No wind

Location: Wynau

Current Time: Aug 26, 2016 at 7:23:49 AM

Latest Report: Aug 26, 2016 at 6:00 AM


Visibility: N/A

Pressure: 30.08 "Hg

Humidity: 99%

Dew Point: 61 °F

Location of OltenLocation

Past Weather in Olten — Graph

°F

Olten Temperature Yesterday

Maximum temperature yesterday: 88 °F (at 5:00 PM)
Minimum temperature yesterday: 57 °F (at 7:00 AM)
Average temperature yesterday: 72 °F

High & Low Weather Summary for the Past Weeks

 TemperatureHumidityPressure
High88 °F (Aug 25, 5:00 PM)100% (Aug 13, 7:00 AM)30.40 "Hg (Aug 13, 7:00 AM)
Low45 °F (Aug 11, 6:00 AM)40% (Aug 22, 3:00 PM)29.80 "Hg (Aug 17, 6:00 PM)
Average66 °F79%30.11 "Hg
* Reported Aug 11 6:00 AM — Aug 26 6:00 AM, Olten, Weather by CustomWeather, © 2016

Note: Actual official high and low records may vary slightly from our data, if they occured in-between our weather recording intervals... More about our weather records

Advertising

Olten Weather History for the Previous 24 Hours

Scroll right to see more
 ConditionsComfort  
Time TempWeatherWind HumidityBarometerVisibility
6:00 AM
Fri, Aug 26
62 °FCool.No wind99%30.08 "HgN/A
5:00 AM62 °FCool.1 mph100%30.07 "HgN/A
4:00 AM63 °FMild.No wind99%30.06 "HgN/A
3:00 AM64 °FMild.1 mph99%30.05 "HgN/A
2:00 AM65 °FMild.1 mph98%30.04 "HgN/A
1:00 AM66 °FMild.1 mph100%30.03 "HgN/A
12:00 AM67 °FMild.1 mph96%30.03 "HgN/A
11:00 PM
Thu, Aug 25
69 °FMild.No wind94%30.02 "HgN/A
10:00 PM70 °FMild.1 mph92%30.01 "HgN/A
9:00 PM72 °FMild.No wind86%30.00 "HgN/A
8:00 PM76 °FMild.1 mph78%29.97 "HgN/A
7:00 PM81 °FWarm.1 mph69%29.96 "HgN/A
6:00 PM86 °FWarm.1 mph48%29.95 "HgN/A
5:00 PM88 °FWarm.1 mph51%29.96 "HgN/A
4:00 PM87 °FWarm.2 mph48%29.97 "HgN/A
3:00 PM85 °FWarm.2 mph52%29.99 "HgN/A
2:00 PM84 °FWarm.3 mph56%30.00 "HgN/A
1:00 PM81 °FWarm.3 mph63%30.02 "HgN/A
12:00 PM78 °FWarm.3 mph64%30.04 "HgN/A
11:00 AM74 °FMild.2 mph71%30.07 "HgN/A
10:00 AM69 °FMild.1 mph80%30.09 "HgN/A
9:00 AM65 °FMild.1 mph91%30.10 "HgN/A
8:00 AM60 °FCool.No wind96%30.12 "HgN/A
7:00 AM57 °FCool.No wind99%30.12 "HgN/A
Weather by CustomWeather, © 2016

See weather overviewHow to use our weather pages